Overview Statistics Trail Chart Weather Telemetry Raw packets
 

This is the latest recevied weather packets stored in our database for station/object EA1GHG-11. If no packets are shown the sender has not sent any weather packets the latest 10 day(s).

<< 15 16 17 18 19 20 21 >>
Time Temp. Humidity Pressure Rain* Wind** Luminosity Snow
1787961994 12.22° C 100% 1025.8 hPa - - - -
1787960494 13.33° C 100% 1025.9 hPa - - - -
1787958994 13.89° C 100% 1025.9 hPa - - - -
1787957494 13.89° C 100% 1026.1 hPa - - - -
1787955994 14.44° C 100% 1026.1 hPa - - - -
1787954493 14.44° C 100% 1026.2 hPa - - - -
1787952993 15° C 100% 1026.3 hPa - - - -
1787951493 15.56° C 100% 1026.1 hPa - - - -
1787949993 16.11° C 100% 1026.1 hPa - - - -
1787948527 17.22° C 100% 1025.7 hPa - - - -
1787948492 17.22° C 100% 1025.7 hPa - - - -
1787946992 17.22° C 100% 1025.5 hPa - - - -
1787945492 17.78° C 100% 1025.2 hPa - - - -
1787923890 22.22° C 100% 1025 hPa - - - -
1787923293 22.22° C 100% 1025 hPa - - - -
1787921793 22.22° C 100% 1024.9 hPa - - - -
1787920293 21.67° C 100% 1024.9 hPa - - - -
1787918792 22.22° C 100% 1024.9 hPa - - - -
1787917292 20.56° C 100% 1024.8 hPa - - - -
1787915792 20.56° C 100% 1024.8 hPa - - - -
1787914292 17.78° C 100% 1025 hPa - - - -
1787912792 18.33° C 100% 1024.7 hPa - - - -
1787911292 18.33° C 100% 1024.7 hPa - - - -
1787909792 17.78° C 100% 1024.4 hPa - - - -
1787908291 17.22° C 100% 1024.4 hPa - - - -

* Rain since midnight (hover to see other rain measurements)
** Current wind speed in m/s (hover to see current wind gust speed)